Погода в Ефремове

Погода в Ефремове : погода сейчас, прогноз погоды и архив. Всё, что Вы хотите узнать о погоде в Ефремове!

Поиск расширенной информации на нашем сайте:

Другие новости

Новости СМИ2

Главная страница сайта

Новости сайта

03.07.2017

Напоминаем, что на нашем специализированном сайте Метеоцентр.Азия вы можете получить высокодетализированные автоматические прогнозы погоды по пунктам России, СНГ и мира в авиационном формате (включающие направление и скорость ветра, видимость, явления погоды, количество и форму облачности, нижнюю и верхнюю границу облачности).


Погода в Ефремове - сегодня

Время (UTC), дата Ветер
(°,м/с) 
Видим.   Явления Облачность Т
(°С)
Тd
(°С)
f(%) Тe
(°С)
Pmin
(гПа)
dP
(гПа)
Po
(мм)
O2
(г/м3)
Тmin Tmax R s Состояние
почвы
00 15.08.17 330 (СЗ) 10 км  {гроза}  9/4 300 м кучево-дожд., средняя 
[Cb cap|Ac trans]
+19.9 +17.7 87 +35  1018.4  -1.1  745  276           
03 15.08.17 010 (С) 10 км    9/9 300 м кучево-дожд. 
[Cb cap]
+19.5 +17.5 88 +34  1020  1.5  746  277  +19.3         
06 15.08.17 030 (СВ) 10 км  {гроза}  10/5 300 м кучево-дожд., средняя 
[Cb cap|Ac As]
+19.7 +17.7 88 +35  1021.2  1.2  747  277  +19.3         
09 15.08.17 030 (СВ) 10 км    3/1 1000 м средняя 
[Cu hum|Ac trans]
+24.9 +15.4 56 +34  1021.6  0.8  747  273           
12 15.08.17 020 (С) 10 км    4/4 1000 м 
[Cu hum]
+25.7 +15 52 +34  1021.8  0.3  748  272           
21 15.08.17 070 (В) 10 км    ясно 
+17.7 +12.9 73 +24  1025  0.8  749  281           
00 16.08.17 030 (СВ) 10 км    ясно 
+15.5 +12.7 83 +21  1025.6  0.4  750  283           
03 16.08.17 060 (СВ) 10 км    ясно 
+14.9 +12.6 86 +21  1026  0.3  750  284  +14.7         
06 16.08.17 060 (СВ) 10 км    ясно 
+20 +14.3 70 +27  1025.9  0.4  750  279  +14.7         
09 16.08.17 050 (СВ) 5{11}  10 км    3/3 1000 м 
[Cu hum]
+24.4 +11.9 46 +28  1025.1  -0.4  750  275           
12 16.08.17 060 (СВ) 5{10}  10 км    6/6 1000 м 
[Cu hum]
+25.2 +12.7 46 +30  1024.5  -0.6  749  274           
15 16.08.17 080 (В) 10 км    4/4 1000 м 
[Cu hum]
+24.3 +14.4 54 +32  1024.2  -0.3  749  274           
18 16.08.17 070 (В) 10 км    ясно 
+19.5 +14.8 74 +29  1025.2  0.6  750  279    +25.9       
21 16.08.17 060 (СВ) 10 км    ясно 
+17.6 +14.2 80 +25  1025.8  0.3  750  281           
00 17.08.17 070 (В) 10 км    3/0 средняя 
[Ac trans]
+16.6 +14 85 +24  1025.7  -0.2  750  282           
03 17.08.17 050 (СВ) 10 км    4/0 средняя 
[Ac cast]
+15.5 +13.6 88 +22  1026  0.2  750  283  +15.5         
06 17.08.17 070 (В) 10 км    8/4 600 м кучево-дожд., средняя 
[Cb cap|Ac trans]
+19.2 +14.7 75 +28  1025.8  0.2  750  279  +15.5         
09 17.08.17 100 (В) 10 км    ясно 
+26.1 +12.6 43 +31  1025.1  -0.2  750  273           
12 17.08.17 100 (В) 10 км    9/8 600 м верхняя 
[Cu med, cong|Ci fib]
+27.5 +9.7 33 +28  1024  -1  749  273           
15 17.08.17 070 (В) 10 км    8/3 600 м верхняя 
[Cu med, cong|Ci fib]
+26 +10.5 38 +28  1023.7  -0.4  749  274           
18 17.08.17 070 (В) 10 км    ясно 
+20.8 +12.2 58 +25  1024.5  0.4  749  278    +28.3       
21 17.08.17 070 (В) 10 км    ясно 
+17.8 +13.5 76 +25  1025.1  0.3  749  281           
00 18.08.17 060 (СВ) 10 км    ясно 
+16.7 +12.9 78 +23  1025.3  0.1  750  282           
03 18.08.17 080 (В) 10 км    ясно 
+15.9 +11.6 76 +20  1025.6  0.2  750  283  +15.6         
06 18.08.17 080 (В) 10 км    6/0 верхняя 
[Ci fib]
+20.9 +13.2 61 +27  1025.6  0.4  750  278  +15.6         
Время (UTC), дата Ветер
(°,м/с) 
Видим.   Явления Облачность Т
(°С)
Тd
(°С)
f(%) Тe
(°С)
Pmin
(гПа)
dP
(гПа)
Po
(мм)
O2
(г/м3)
Тmin Tmax R s Состояние
почвы

Для получения пояснительной информации подведите курсор к названию столбца.

ПОГОДА в Ефремове - архив

Всё, что Вы хотите узнать о погоде в Ефремове - удобно и подробно!

Выберите нужную дату (начиная с 1 января 2015* года) и нажмите кнопку "Найти".
Будут отображены архивные сводки погоды по пункту Ефремов, начиная с указанной даты.


Отображать данные в формате CSV (для использования в таблицах Excel)


Внимание! Наш архив погоды предназначен исключительно для личного некоммерческого использования в познавательных целях. Если Вам необходимы официальные справки о состоянии погоды (для производственных, юридических, коммерческих и т.п. целей), обращайтесь в органы Росгидромета.

*Примечание: данная дата относится к архиву по метеостанциям СССР (Россия, СНГ, Балтия).
Архив по метеостанциям Зарубежной Европы и Азии (кроме Китая) хранится 10 дней, по другим регионам земного шара (Китай, Африка, Америка, Австралия, Океания) - 1 день.

Ефремов - район местоположения метеостанции


Название, широта, долгота, высота метеостанции:
Ефремов 53.2°ш. 38.1°д. 215 м над ур. моря [Российская Федерация]

Дополнительная информация

В oтличие oт бoльшинства пoгoдных сайтoв мы публикуем пoдрoбную метеoинфoрмацию в детальнoм прoфессиoнальнoм фoрмате.

Характеристики температуры и влажнoсти вoздуха измеряются на высoте 2 м в тени вдали oт зданий и деревьев.
Скoрoсть ветра измеряется на высoте 10 м (на урoвне рoста челoвека скoрoсть ветра ниже в 1.5-2 раза). Если метеoстанция нахoдится в гoрoде или в лесу, тo скoрoсть ветра занижена на 2-4 м/с пo сравнению с oткрытым местoм. Скoрoсть ветра над акватoриями крупных рек и oзёр, а также на вершинах хoлмoв на 2-5 м/с выше, чем в oбычных услoвиях.
Атмoсфернoе давление в разных тoчках местнoсти мoжет значительнo oтличаться oт давления на метеoстанции, в зависимoсти oт услoвий рельефа (при пoдъёме на 10 м давление пoнижается примернo на 1 мм рт.ст.).